GW1943 Weather Reports


Display with metric or nautical units.
time (UTC)temp
F
wind
direction
speed
MPH
gust
MPH
rain 1hr
in
rain 24hr
in
rain mn
in
humidity
%
barometer
mb
20240523131412 49 200 0.0 3.0 0.00 0.00 0.00 85 1021.2
20240523130911 49 208 0.0 1.0 0.00 0.00 0.00 86 1021.4
20240523130409 49 216 3.0 3.0 0.00 0.00 0.00 86 1021.0
20240523125908 49 212 0.0 3.0 0.00 0.00 0.00 86 1020.9
20240523125408 49 208 1.0 1.0 0.00 0.00 0.00 87 1021.1
20240523124906 49 206 1.0 1.0 0.00 0.00 0.00 87 1021.1
20240523124406 49 202 0.0 1.0 0.00 0.00 0.00 87 1021.2
20240523123906 49 209 1.0 2.0 0.00 0.00 0.00 87 1021.1
20240523123404 49 237 1.0 2.0 0.00 0.00 0.00 87 1020.9
20240523122903 49 205 0.0 2.0 0.00 0.00 0.00 87 1021.0
20240523122401 49 208 0.0 3.0 0.00 0.00 0.00 87 1020.6
20240523121859 49 205 0.0 1.0 0.00 0.00 0.00 87 1020.9
20240523121358 49 202 0.0 5.0 0.00 0.00 0.00 87 1020.6
20240523120857 48 207 0.0 3.0 0.00 0.00 0.00 87 1020.8
20240523120355 48 203 0.0 2.0 0.00 0.00 0.00 87 1020.6
20240523115854 48 201 0.0 0.0 0.00 0.00 0.00 88 1020.9
20240523115352 48 202 0.0 2.0 0.00 0.00 0.00 87 1020.9
20240523114851 48 200 0.0 6.0 0.00 0.00 0.00 87 1020.7
20240523114350 48 127 0.0 2.0 0.00 0.00 0.00 87 1020.8
20240523113848 48 205 0.0 2.0 0.00 0.00 0.00 87 1020.6
20240523113348 48 203 0.0 2.0 0.00 0.00 0.00 87 1020.8
20240523112847 48 204 0.0 6.0 0.00 0.00 0.00 87 1020.6
20240523112346 48 200 0.0 1.0 0.00 0.00 0.00 88 1020.8
20240523111846 48 202 2.0 2.0 0.00 0.00 0.00 88 1020.8
20240523111345 48 199 0.0 2.0 0.00 0.00 0.00 88 1020.6
20240523110845 48 206 0.0 3.0 0.00 0.00 0.00 87 1020.8
20240523110345 48 217 0.0 3.0 0.00 0.00 0.00 87 1021.1
20240523105843 48 206 1.0 1.0 0.00 0.00 0.00 87 1020.9
20240523105341 49 202 0.0 2.0 0.00 0.00 0.00 87 1021.0
20240523104841 49 200 0.0 2.0 0.00 0.00 0.00 87 1020.9
20240523104340 49 192 1.0 2.0 0.00 0.00 0.00 87 1020.7
20240523103838 49 206 1.0 1.0 0.00 0.00 0.00 87 1020.8
20240523103336 49 202 0.0 3.0 0.00 0.00 0.00 87 1020.9
20240523102833 49 219 0.0 1.0 0.00 0.00 0.00 86 1020.9
20240523102332 49 207 0.0 1.0 0.00 0.00 0.00 86 1020.6
20240523101832 49 206 2.0 5.0 0.00 0.00 0.00 86 1020.7
20240523101315 49 215 0.0 3.0 0.00 0.00 0.00 86 1020.4
20240523100814 49 214 1.0 5.0 0.00 0.00 0.00 86 1020.7
20240523100313 49 202 1.0 1.0 0.00 0.00 0.00 87 1020.5
20240523095811 49 213 1.0 3.0 0.00 0.00 0.00 86 1020.7
20240523095311 49 224 2.0 3.0 0.00 0.00 0.00 86 1020.8
20240523094810 49 213 0.0 7.0 0.00 0.00 0.00 86 1020.6
20240523094308 49 213 2.0 3.0 0.00 0.00 0.00 87 1020.7
20240523093806 49 208 1.0 5.0 0.00 0.00 0.00 87 1020.7
20240523093305 49 202 1.0 3.0 0.00 0.00 0.00 87 1020.7
20240523092805 49 210 1.0 1.0 0.00 0.00 0.00 86 1020.6
20240523092304 50 236 1.0 2.0 0.00 0.00 0.00 86 1020.6
20240523091803 49 208 1.0 2.0 0.00 0.00 0.00 86 1020.6
20240523091302 49 207 1.0 2.0 0.00 0.00 0.00 85 1020.5
20240523090801 50 211 3.0 3.0 0.00 0.00 0.00 84 1020.5
20240523090300 50 216 2.0 5.0 0.00 0.00 0.00 84 1020.4
20240523085758 50 205 1.0 3.0 0.00 0.00 0.00 84 1020.3
20240523085257 50 203 0.0 1.0 0.00 0.00 0.00 84 1020.3
20240523084756 50 205 3.0 3.0 0.00 0.00 0.00 84 1020.4
20240523084254 50 214 3.0 3.0 0.00 0.00 0.00 84 1020.1
20240523083753 50 211 2.0 5.0 0.00 0.00 0.00 83 1020.2
20240523083251 50 210 1.0 2.0 0.00 0.00 0.00 82 1020.1
20240523082749 50 207 0.0 5.0 0.00 0.00 0.00 82 1020.2
20240523082248 50 210 0.0 1.0 0.00 0.00 0.00 82 1020.0
20240523081747 51 207 0.0 1.0 0.00 0.00 0.00 81 1020.1
20240523081247 51 217 0.0 2.0 0.00 0.00 0.00 81 1020.1
20240523080747 51 212 2.0 7.0 0.00 0.00 0.00 80 1020.0
20240523080246 51 208 2.0 2.0 0.00 0.00 0.00 79 1019.9
20240523075745 51 213 2.0 5.0 0.00 0.00 0.00 78 1020.1
20240523075245 51 219 3.0 3.0 0.00 0.00 0.00 80 1020.0
20240523074743 51 211 3.0 6.0 0.00 0.00 0.00 82 1019.9
20240523074241 50 208 0.0 1.0 0.00 0.00 0.00 84 1019.9
20240523073738 51 205 0.0 0.0 0.00 0.00 0.00 84 1019.7
20240523073238 51 207 0.0 0.0 0.00 0.00 0.00 83 1019.7
20240523072736 51 214 3.0 3.0 0.00 0.00 0.00 82 1019.7
20240523072235 52 213 1.0 2.0 0.00 0.00 0.00 82 1019.7
20240523071735 52 209 0.0 1.0 0.00 0.00 0.00 82 1019.5
20240523071233 52 211 0.0 2.0 0.00 0.00 0.00 82 1019.6
20240523070732 52 199 0.0 3.0 0.00 0.00 0.00 81 1019.5
20240523070231 52 203 0.0 1.0 0.00 0.00 0.00 80 1019.6
20240523065731 52 205 1.0 2.0 0.00 0.07 0.07 80 1019.3
20240523065230 53 198 3.0 5.0 0.00 0.07 0.07 79 1019.3
20240523064729 53 200 0.0 5.0 0.00 0.07 0.07 78 1019.4
20240523064228 53 205 1.0 2.0 0.00 0.07 0.07 79 1019.3
20240523063727 53 169 0.0 0.0 0.00 0.07 0.07 79 1019.2
20240523063226 53 202 0.0 5.0 0.00 0.07 0.07 78 1019.2
20240523062724 53 202 1.0 2.0 0.00 0.07 0.07 77 1019.2
20240523062223 54 202 0.0 1.0 0.00 0.07 0.07 76 1019.1
20240523061721 54 198 2.0 3.0 0.00 0.07 0.07 75 1019.3
20240523061219 53 210 1.0 1.0 0.00 0.07 0.07 77 1019.4
20240523060717 53 200 0.0 1.0 0.00 0.07 0.07 77 1019.3
20240523060215 53 207 0.0 1.0 0.00 0.07 0.07 77 1019.4
20240523055713 53 204 0.0 1.0 0.00 0.07 0.07 77 1019.3
20240523055211 53 199 1.0 1.0 0.00 0.07 0.07 76 1019.3
20240523054710 54 205 0.0 0.0 0.00 0.07 0.07 76 1019.4
20240523054208 54 199 0.0 1.0 0.00 0.07 0.07 76 1019.5
20240523053708 54 197 1.0 2.0 0.00 0.07 0.07 75 1019.2
20240523053206 54 200 0.0 0.0 0.00 0.07 0.07 75 1019.4
20240523052705 54 212 0.0 2.0 0.00 0.07 0.07 75 1019.3
20240523052205 54 209 0.0 1.0 0.00 0.07 0.07 76 1019.3
20240523051704 54 207 0.0 0.0 0.00 0.07 0.07 76 1019.3
20240523051200 54 202 0.0 1.0 0.00 0.07 0.07 76 1019.4
20240523050658 54 122 1.0 6.0 0.00 0.07 0.07 75 1019.1
20240523050157 54 209 0.0 2.0 0.00 0.07 0.07 76 1019.2
20240523045655 54 210 0.0 2.0 0.00 0.07 0.07 76 1019.2
20240523045153 54 199 2.0 2.0 0.00 0.07 0.07 76 1019.2
20240523044651 54 204 0.0 1.0 0.00 0.07 0.07 77 1019.0
20240523044149 54 206 0.0 2.0 0.00 0.07 0.07 76 1018.9
20240523043648 54 198 0.0 1.0 0.00 0.07 0.07 77 1018.9
20240523043147 54 200 0.0 1.0 0.00 0.07 0.07 78 1018.7
20240523042645 54 200 0.0 1.0 0.00 0.07 0.07 78 1018.8
20240523042144 54 199 2.0 2.0 0.00 0.07 0.07 78 1018.7
20240523041643 55 202 0.0 1.0 0.00 0.07 0.07 78 1018.6
20240523041141 55 200 0.0 1.0 0.00 0.07 0.07 78 1018.6
20240523040639 55 199 2.0 3.0 0.00 0.07 0.07 77 1018.6
20240523040139 55 201 1.0 1.0 0.00 0.07 0.07 77 1018.5
20240523035638 55 197 0.0 0.0 0.00 0.07 0.07 77 1018.4
20240523035137 55 200 0.0 0.0 0.00 0.07 0.07 76 1018.3
20240523034635 55 199 0.0 1.0 0.00 0.07 0.07 75 1018.3
20240523034134 55 193 0.0 1.0 0.00 0.07 0.07 75 1018.2
20240523033634 55 196 0.0 1.0 0.00 0.07 0.07 75 1018.4
20240523033133 55 154 0.0 1.0 0.00 0.07 0.07 74 1018.2
20240523032631 56 196 0.0 1.0 0.00 0.07 0.07 73 1018.1
20240523032130 55 204 2.0 6.0 0.00 0.07 0.07 71 1018.1
20240523031628 55 222 0.0 0.0 0.00 0.07 0.07 72 1018.1
20240523031126 55 222 0.0 0.0 0.00 0.07 0.07 72 1017.9
20240523030625 55 222 0.0 0.0 0.00 0.07 0.07 72 1017.9
20240523030124 56 222 0.0 0.0 0.00 0.07 0.07 72 1017.9
20240523025623 56 222 0.0 0.0 0.00 0.07 0.07 70 1017.7
20240523025122 57 222 0.0 0.0 0.00 0.07 0.07 68 1017.8
20240523024621 57 222 0.0 0.0 0.00 0.07 0.07 67 1018.0
20240523024119 57 223 0.0 0.0 0.00 0.07 0.07 65 1017.8
20240523023618 58 223 0.0 0.0 0.00 0.07 0.07 64 1017.7
20240523023116 58 223 0.0 1.0 0.00 0.07 0.07 64 1017.6
20240523022614 58 221 0.0 1.0 0.00 0.07 0.07 62 1018.0
20240523022114 58 213 0.0 2.0 0.00 0.07 0.07 61 1017.8
20240523021612 59 230 3.0 3.0 0.00 0.07 0.07 63 1017.6
20240523021111 60 198 2.0 2.0 0.00 0.07 0.07 59 1017.6
20240523020611 61 227 0.0 1.0 0.00 0.07 0.07 59 1017.4
20240523020109 62 217 1.0 2.0 0.00 0.07 0.07 58 1017.3
20240523015608 61 211 0.0 2.0 0.00 0.07 0.07 57 1017.5
20240523015107 61 210 1.0 2.0 0.00 0.07 0.07 56 1017.5
20240523014606 60 212 1.0 2.0 0.00 0.07 0.07 59 1017.4
20240523014104 60 94 1.0 2.0 0.00 0.07 0.07 58 1017.3
20240523013604 60 206 0.0 1.0 0.00 0.07 0.07 60 1017.5
20240523013103 61 213 0.0 0.0 0.00 0.07 0.07 59 1017.1
20240523012601 61 202 0.0 2.0 0.00 0.07 0.07 56 1017.1
20240523012101 62 195 1.0 1.0 0.00 0.07 0.07 54 1017.3
20240523011601 64 220 0.0 1.0 0.00 0.07 0.07 57 1017.1
20240523011100 63 217 1.0 2.0 0.00 0.07 0.07 56 1017.0
20240523010558 62 219 1.0 3.0 0.00 0.07 0.07 53 1016.9
20240523010056 63 20 1.0 3.0 0.00 0.07 0.07 56 1017.0
20240523005555 64 233 1.0 1.0 0.00 0.07 0.07 52 1016.8
20240523005054 64 214 0.0 3.0 0.00 0.07 0.07 55 1016.7
20240523004552 63 217 0.0 2.0 0.00 0.07 0.07 56 1016.9
20240523004051 63 165 1.0 3.0 0.00 0.07 0.07 53 1016.7
20240523003548 62 214 0.0 6.0 0.00 0.07 0.07 57 1016.6
20240523003048 62 237 1.0 1.0 0.00 0.07 0.07 58 1016.8
20240523002547 63 39 2.0 2.0 0.00 0.07 0.07 51 1016.6
20240523002046 62 230 1.0 2.0 0.00 0.07 0.07 54 1016.8
20240523001543 62 211 0.0 2.0 0.00 0.07 0.07 54 1016.5
20240523001042 62 231 2.0 2.0 0.00 0.07 0.07 53 1016.5
20240523000540 63 142 2.0 5.0 0.00 0.07 0.07 50 1016.4
20240523000038 63 211 0.0 2.0 0.00 0.07 0.07 53 1016.4
20240522235536 63 130 1.0 2.0 0.00 0.07 0.07 50 1016.5
20240522235033 62 245 1.0 1.0 0.00 0.07 0.07 55 1016.6
20240522234532 61 67 0.0 3.0 0.00 0.07 0.07 57 1016.6
20240522234031 62 72 3.0 5.0 0.00 0.07 0.07 51 1016.3
20240522233530 62 218 3.0 5.0 0.00 0.07 0.07 50 1016.5
20240522233028 61 241 2.0 2.0 0.00 0.07 0.07 53 1016.5
20240522232527 60 43 2.0 2.0 0.00 0.07 0.07 55 1016.6
20240522232027 59 69 1.0 5.0 0.00 0.07 0.07 58 1016.5
20240522231526 60 209 1.0 2.0 0.00 0.07 0.07 55 1016.6
20240522231024 60 177 0.0 2.0 0.00 0.07 0.07 56 1016.2
20240522230523 60 276 1.0 3.0 0.00 0.07 0.07 54 1016.6
20240522230022 60 175 1.0 2.0 0.00 0.07 0.07 55 1016.3
20240522225522 59 149 1.0 2.0 0.00 0.07 0.07 56 1016.4
20240522225021 59 232 1.0 2.0 0.00 0.07 0.07 55 1016.2
20240522224519 58 203 0.0 3.0 0.00 0.07 0.07 59 1016.3
20240522224019 58 206 0.0 1.0 0.00 0.07 0.07 59 1016.1
20240522223519 58 182 1.0 3.0 0.00 0.07 0.07 56 1016.3
20240522223017 58 211 0.0 2.0 0.00 0.07 0.07 63 1016.3
20240522222516 59 202 1.0 3.0 0.00 0.07 0.07 60 1016.1
20240522222016 60 51 3.0 5.0 0.00 0.07 0.07 55 1015.9
20240522221514 60 180 2.0 3.0 0.00 0.07 0.07 56 1016.3
20240522221013 58 220 0.0 1.0 0.00 0.07 0.07 66 1015.9
20240522220512 60 231 3.0 5.0 0.00 0.07 0.07 60 1016.1
20240522220011 57 215 0.0 2.0 0.00 0.07 0.07 66 1015.9
20240522215510 57 205 1.0 3.0 0.00 0.07 0.07 67 1016.0
20240522215009 57 209 0.0 1.0 0.00 0.07 0.07 70 1015.9
20240522214508 56 220 0.0 1.0 0.00 0.07 0.07 69 1015.9
20240522214007 56 238 4.0 6.0 0.00 0.07 0.07 65 1015.7
20240522213505 56 214 0.0 3.0 0.00 0.07 0.07 67 1015.7
20240522213004 56 219 0.0 2.0 0.00 0.07 0.07 68 1015.7
20240522212503 56 234 3.0 3.0 0.00 0.07 0.07 66 1015.8
20240522212002 55 229 1.0 2.0 0.00 0.07 0.07 68 1015.8
20240522211502 56 214 1.0 2.0 0.00 0.07 0.07 68 1015.6
20240522211000 55 195 1.0 2.0 0.00 0.07 0.07 70 1015.4
20240522210459 55 191 3.0 5.0 0.00 0.07 0.07 69 1015.4
20240522205958 56 193 2.0 3.0 0.00 0.07 0.07 67 1015.7
20240522205457 56 294 2.0 3.0 0.00 0.07 0.07 67 1015.5
20240522204956 56 239 1.0 2.0 0.00 0.07 0.07 69 1015.5
20240522204454 56 241 1.0 3.0 0.00 0.07 0.07 68 1015.3
20240522203954 56 205 0.0 1.0 0.00 0.07 0.07 70 1015.5
20240522203452 57 41 1.0 3.0 0.00 0.07 0.07 69 1015.5
20240522202950 57 203 0.0 1.0 0.00 0.07 0.07 67 1015.4
20240522202450 56 113 0.0 1.0 0.00 0.07 0.07 68 1015.3
20240522201949 56 203 1.0 3.0 0.00 0.07 0.07 68 1015.1
20240522201447 56 205 1.0 2.0 0.00 0.07 0.07 67 1015.2
20240522200946 55 205 0.0 2.0 0.00 0.07 0.07 71 1015.0
20240522200446 55 195 0.0 2.0 0.00 0.07 0.07 70 1015.2
20240522195946 55 207 2.0 2.0 0.00 0.07 0.07 71 1014.9
20240522195445 55 204 2.0 2.0 0.00 0.07 0.07 69 1015.0
20240522194944 56 71 3.0 6.0 0.00 0.07 0.07 67 1014.9
20240522194444 55 193 2.0 3.0 0.00 0.07 0.07 67 1015.0
20240522193942 55 242 1.0 3.0 0.00 0.07 0.07 70 1014.9
20240522193442 55 9 1.0 2.0 0.00 0.07 0.07 72 1014.6
20240522192940 55 158 2.0 5.0 0.00 0.07 0.07 69 1014.6
20240522192439 55 297 1.0 2.0 0.00 0.07 0.07 69 1014.8
20240522191938 55 30 1.0 2.0 0.00 0.07 0.07 69 1014.9
20240522191436 55 298 3.0 3.0 0.00 0.07 0.07 70 1014.5
20240522190935 54 221 0.0 2.0 0.00 0.07 0.07 71 1014.5
20240522190434 55 207 1.0 2.0 0.00 0.07 0.07 70 1014.5
20240522185933 55 209 0.0 2.0 0.00 0.07 0.07 74 1014.4
20240522185433 53 172 2.0 2.0 0.00 0.07 0.07 71 1014.2
20240522184932 53 219 1.0 2.0 0.00 0.07 0.07 72 1014.2
20240522184431 53 208 0.0 5.0 0.00 0.07 0.07 74 1014.2
20240522183929 53 186 0.0 3.0 0.00 0.07 0.07 72 1013.9
20240522183428 53 45 2.0 3.0 0.00 0.07 0.07 70 1014.1
20240522182927 53 219 0.0 1.0 0.00 0.07 0.07 74 1013.9
20240522182427 53 25 0.0 2.0 0.00 0.07 0.07 75 1014.1
20240522181925 52 81 2.0 2.0 0.00 0.07 0.07 76 1014.0
20240522181424 53 202 0.0 2.0 0.00 0.07 0.07 77 1014.0
20240522180923 53 220 1.0 2.0 0.00 0.07 0.07 75 1013.9
20240522180422 53 223 1.0 3.0 0.00 0.07 0.07 75 1013.9
20240522175920 52 212 0.0 2.0 0.00 0.07 0.07 74 1013.9
20240522175419 53 196 0.0 1.0 0.00 0.07 0.07 78 1013.8
20240522174918 53 209 0.0 1.0 0.00 0.07 0.07 78 1013.8
20240522174417 53 218 0.0 1.0 0.00 0.07 0.07 78 1013.5
20240522173915 53 227 1.0 1.0 0.00 0.07 0.07 78 1013.4
20240522173414 53 196 0.0 2.0 0.00 0.07 0.07 75 1013.5
20240522172913 53 218 1.0 2.0 0.00 0.07 0.07 77 1013.2
20240522172412 52 217 1.0 1.0 0.00 0.07 0.07 77 1013.3
20240522171912 52 169 1.0 1.0 0.00 0.07 0.07 73 1013.3
20240522171411 51 214 0.0 3.0 0.00 0.07 0.07 74 1013.3
20240522170910 51 217 0.0 0.0 0.00 0.07 0.07 76 1013.2
20240522170409 51 220 0.0 2.0 0.00 0.07 0.07 78 1013.4
20240522165907 51 220 0.0 1.0 0.00 0.07 0.07 82 1013.3
20240522165405 50 229 1.0 2.0 0.00 0.07 0.07 81 1013.1
20240522164904 50 213 1.0 2.0 0.00 0.07 0.07 81 1013.2
20240522164405 50 201 0.0 3.0 0.00 0.07 0.07 84 1013.1
20240522163904 50 260 2.0 2.0 0.00 0.07 0.07 84 1013.1
20240522163402 49 214 0.0 1.0 0.00 0.07 0.07 83 1012.9
20240522162903 50 198 0.0 0.0 0.00 0.07 0.07 84 1013.1
20240522162402 50 212 0.0 0.0 0.00 0.07 0.07 85 1013.2
20240522161900 49 223 0.0 2.0 0.00 0.07 0.07 83 1013.1
20240522161358 49 214 0.0 1.0 0.00 0.07 0.07 85 1013.0
20240522160857 50 226 0.0 0.0 0.00 0.07 0.07 85 1013.1
20240522160356 49 214 0.0 1.0 0.00 0.07 0.07 85 1013.1
20240522155855 49 216 0.0 1.0 0.00 0.07 0.07 87 1012.9
20240522155353 49 217 1.0 1.0 0.00 0.07 0.07 87 1012.9
20240522154852 48 219 1.0 1.0 0.00 0.07 0.07 87 1012.9
20240522154351 48 226 0.0 1.0 0.00 0.07 0.07 86 1012.8
20240522153850 48 213 0.0 0.0 0.00 0.07 0.07 89 1012.8
20240522153348 48 216 0.0 0.0 0.00 0.07 0.07 89 1012.7
20240522152847 48 221 1.0 5.0 0.00 0.07 0.07 87 1012.5
20240522152347 48 218 1.0 2.0 0.00 0.07 0.07 88 1012.6
20240522151847 48 215 1.0 3.0 0.00 0.07 0.07 88 1012.1
20240522151346 48 218 0.0 1.0 0.00 0.07 0.07 89 1012.2
20240522150844 48 213 0.0 2.0 0.00 0.07 0.07 88 1012.2
20240522150343 48 262 2.0 5.0 0.00 0.07 0.07 87 1012.0
20240522145842 48 212 1.0 2.0 0.00 0.07 0.07 89 1012.1
20240522145341 48 215 1.0 3.0 0.00 0.07 0.07 88 1012.1
20240522144839 48 219 3.0 3.0 0.00 0.07 0.07 88 1011.9
20240522144338 48 212 0.0 5.0 0.00 0.07 0.07 88 1011.9
20240522143838 48 210 1.0 3.0 0.00 0.07 0.07 89 1011.9
20240522143337 47 215 0.0 1.0 0.00 0.07 0.07 89 1011.6
20240522142835 47 213 0.0 2.0 0.00 0.07 0.07 89 1011.5
20240522142334 47 204 2.0 2.0 0.00 0.07 0.07 91 1011.7
20240522141832 47 218 1.0 1.0 0.00 0.07 0.07 92 1011.7
20240522141331 46 203 0.0 0.0 0.00 0.07 0.07 92 1011.6
20240522140830 46 208 0.0 1.0 0.00 0.07 0.07 91 1011.8
20240522140328 46 203 0.0 0.0 0.00 0.07 0.07 92 1011.8
20240522135826 46 207 1.0 2.0 0.00 0.07 0.07 91 1011.8
20240522135326 46 215 2.0 6.0 0.00 0.07 0.07 91 1011.5
20240522134825 46 208 0.0 1.0 0.00 0.07 0.07 92 1011.6
20240522134323 46 215 2.0 2.0 0.00 0.07 0.07 92 1011.3
20240522133821 46 211 0.0 3.0 0.00 0.07 0.07 91 1011.2
20240522133320 46 207 0.0 0.0 0.00 0.07 0.07 92 1011.6
20240522132819 45 203 2.0 2.0 0.00 0.07 0.07 93 1011.4
20240522132318 46 216 0.0 2.0 0.00 0.07 0.07 93 1011.2
20240522131816 45 210 0.0 1.0 0.00 0.07 0.07 93 1011.2